Time,B instrument,Bx,By,Bz,sigma B,Ion instrument,Status,Tp_par,Tp_perp,carrot,r_sun,clat,clong,earth_he_angle,n_p,vp_x,vp_y,vp_z,vth_p_par,vth_p_perp
1980-02-03 02:59:42,-1,nan,nan,nan,nan,1,4,nan,nan,1691,0.95046443,1.5878582,159.0769,289.698,nan,nan,nan,nan,nan,nan
1980-02-03 04:26:06,-1,nan,nan,nan,nan,1,4,nan,nan,1691,0.95066565,1.5823069,158.26807,289.68213,nan,nan,nan,nan,nan,nan
1980-02-03 05:09:18,-1,nan,nan,nan,nan,1,4,nan,nan,1691,0.95076501,1.5795631,157.86548,289.67407,nan,nan,nan,nan,nan,nan
1980-02-03 05:52:30,-1,nan,nan,nan,nan,1,3,nan,nan,1691,0.95086408,1.5768204,157.46313,289.66626,nan,372.62,85.6529,10.3777,nan,nan
1980-02-03 06:35:42,-1,nan,nan,nan,nan,1,4,nan,nan,1691,0.95096308,1.5740776,157.06055,289.6582,nan,nan,nan,nan,nan,nan
1980-02-03 07:18:54,-1,nan,nan,nan,nan,1,3,nan,nan,1691,0.9510619,1.5713348,156.6582,289.65039,nan,335.432,48.1575,-17.0676,nan,nan
1980-02-03 08:45:18,-1,nan,nan,nan,nan,1,3,nan,nan,1691,0.95126146,1.5657864,155.85303,289.63428,nan,386.043,56.143,12.9948,nan,nan
1980-02-03 10:22:35,-1,nan,nan,nan,nan,1,3,nan,nan,1691,0.95148319,1.5596018,154.94434,289.61621,nan,420.506,0.550509,-37.7813,nan,nan
1980-02-03 10:23:16,-1,nan,nan,nan,nan,1,3,nan,nan,1691,0.95148546,1.5595379,154.93628,289.61597,nan,413.222,-5.64487,-34.9199,nan,nan
1980-02-03 10:23:56,-1,nan,nan,nan,nan,1,3,nan,nan,1691,0.95148546,1.5595379,154.93237,289.61597,nan,420.907,0.581644,-38.5633,nan,nan
1980-02-03 10:24:11,-1,nan,nan,nan,nan,1,3,nan,nan,1691,0.95148772,1.5594749,154.92847,289.61597,nan,411.847,-7.47545,-35.8328,nan,nan
1980-02-03 10:24:51,2,-6.18,5.16,0.615,0.182551,1,1,42440.5,54426.0,1691,0.95148772,1.5594749,154.92456,289.61597,3.33272,406.118,4.61475,-39.2689,26.4697,29.9751
1980-02-03 10:25:32,2,-6.244,5.4,1.326,0.176997,1,1,197172.0,76779.7,1691,0.95149004,1.559411,154.9165,289.61572,4.63394,409.669,0.580316,-38.0065,57.0532,35.6025
1980-02-03 10:26:12,2,-6.126,5.344,1.03,0.232826,1,1,61985.0,63538.3,1691,0.95149231,1.5593472,154.91235,289.61548,3.674,409.24,2.65247,-37.4081,31.989,32.3874
1980-02-03 10:26:53,2,-5.898,5.306,0.64,0.237065,1,1,41113.5,37544.9,1691,0.95149231,1.5593472,154.90454,289.61548,3.98195,415.319,-3.30636,-36.7096,26.0525,24.8962
1980-02-03 10:27:33,2,-5.906,5.458,0.67,0.188043,1,1,43026.3,33912.3,1691,0.95149457,1.5592833,154.89648,289.61523,4.74988,416.933,0.590938,-35.9864,26.6517,23.6612
1980-02-03 10:28:54,2,-6.03,5.55,0.92,0.0,1,1,39983.6,35063.2,1691,0.95149684,1.5592194,154.88477,289.61523,3.9048,415.291,-0.472047,-35.5004,25.6921,24.0593
1980-02-03 10:29:35,2,-6.284,5.446,1.202,0.132151,1,1,30831.2,29697.6,1691,0.95149916,1.5591555,154.88062,289.61499,4.16371,415.105,-1.25793,-37.5406,22.5607,22.1421
1980-02-03 10:30:15,1,-6.28,6.03333,4.17333,0.278887,1,1,45723.3,38260.4,1691,0.95150143,1.5590925,154.87256,289.61475,4.01215,417.263,-1.97104,-35.5575,27.4743,25.1323
1980-02-03 10:30:56,1,-5.78,6.60667,4.08667,0.583705,1,1,26715.3,31924.2,1691,0.95150143,1.5590925,154.86865,289.61475,4.12936,412.56,-1.87264,-38.4443,21.0009,22.9571
1980-02-03 10:32:17,1,-5.20667,6.71333,3.68,0.737142,1,1,29280.4,32529.5,1691,0.95150602,1.5589647,154.85278,289.6145,4.43463,413.698,-4.06826,-38.2442,21.986,23.1738
1980-02-03 10:32:57,1,-5.58,6.4,4.22,0.444822,1,1,36949.1,33668.0,1691,0.95150602,1.5589647,154.84888,289.6145,4.74408,418.449,1.0689,-37.8194,24.6979,23.5758
1980-02-03 10:33:38,1,-5.0625,6.7125,4.0625,0.445288,1,1,29206.0,32545.8,1691,0.95150828,1.5589008,154.84082,289.61426,4.50615,413.829,-4.0011,-39.0599,21.9581,23.1796
1980-02-03 10:34:18,1,-5.41333,6.45333,4.07333,0.370945,1,1,35843.2,36581.2,1691,0.95151055,1.5588369,154.83667,289.61401,4.39655,415.442,-0.205445,-36.8062,24.3255,24.5746
1980-02-03 10:34:59,1,-5.34,6.46,4.27333,0.476189,1,1,29080.8,31265.5,1691,0.95151055,1.5588369,154.82886,289.61401,4.30954,413.48,-2.82889,-40.1823,21.911,22.7191
1980-02-03 10:35:39,1,-5.68571,6.24286,3.96429,0.374506,1,1,40136.5,31601.1,1691,0.95151281,1.558773,154.8208,289.61377,4.48819,417.349,-0.669579,-36.006,25.7411,22.8407
1980-02-03 10:37:00,1,-5.57333,6.28667,3.83333,0.802496,1,1,42852.2,38448.9,1691,0.9515174,1.5586462,154.80884,289.61353,4.21457,414.365,-3.35163,-36.644,26.5977,25.1941
1980-02-03 10:37:41,1,-5.95333,5.60667,4.52,0.310984,1,1,30168.0,35502.1,1691,0.9515174,1.5586462,154.80493,289.61353,4.33102,415.306,-1.77687,-37.1444,22.3167,24.2094
1980-02-03 10:38:21,1,-6.16,5.72667,4.06667,0.370465,1,1,35193.0,31692.7,1691,0.95151967,1.5585823,154.79688,289.61328,4.88019,418.678,1.97414,-36.6474,24.1038,22.8737
1980-02-03 10:39:42,1,-5.67333,5.99333,3.04667,0.359258,1,1,115574.0,15605.6,1691,0.95152199,1.5585184,154.78491,289.61304,3.89051,416.134,-5.36856,-32.2284,43.6806,16.0509
1980-02-03 11:15:55,-1,nan,nan,nan,nan,1,3,nan,nan,1691,0.95160407,1.5562239,154.44629,289.60645,nan,400.433,7.93713,-19.4657,nan,nan
1980-02-03 11:16:35,1,-3.24,3.79333,5.04667,0.533083,1,1,45425.9,58364.3,1691,0.95160633,1.55616,154.44214,289.6062,9.15372,399.644,5.75099,-18.6165,27.3848,31.0407
1980-02-03 11:17:16,1,-4.32143,4.15,4.81429,0.335486,1,1,48837.5,61103.0,1691,0.9516086,1.5560961,154.43433,289.6062,9.1799,404.71,4.87822,-21.795,28.3945,31.7606
1980-02-03 11:17:56,1,-4.5,4.54667,4.38667,0.445321,1,1,34176.2,40932.7,1691,0.9516086,1.5560961,154.43042,289.6062,8.29639,402.518,4.8091,-21.1674,23.7531,25.9952
1980-02-03 11:18:38,1,-4.60714,4.39286,3.97857,0.346631,1,1,43431.1,61150.9,1691,0.95161086,1.5560331,154.42236,289.60596,8.64367,404.435,3.15542,-22.3016,26.7768,31.7731
1980-02-03 11:19:18,1,-4.34286,4.65,3.99286,0.364356,1,1,34526.8,44012.8,1691,0.95161313,1.5559692,154.41431,289.60571,8.10899,401.894,4.42097,-20.4398,23.8746,26.9555
1980-02-03 11:19:59,1,-4.82143,4.5,4.24286,0.232664,1,1,40966.5,59780.9,1691,0.95161313,1.5559692,154.4104,289.60571,9.03069,404.4,3.74801,-22.0092,26.0059,31.4151
1980-02-03 11:20:39,1,-4.71333,4.47333,4.06,0.326871,1,1,35580.6,47100.0,1691,0.95161545,1.5559053,154.40234,289.60547,7.849,401.982,3.14913,-22.0659,24.2362,27.8849
1980-02-03 11:21:20,1,-4.48,4.36667,4.08,0.336782,1,1,40660.3,61554.4,1691,0.95161772,1.5558414,154.39819,289.60522,9.03872,404.446,3.60987,-23.3336,25.9085,31.8777
1980-02-03 11:22:00,1,-4.58667,4.21333,3.76,0.262128,1,1,35256.8,42071.2,1691,0.95161998,1.5557775,154.39038,289.60522,8.19157,401.54,4.50605,-21.862,24.1257,26.3542
1980-02-03 11:22:41,1,-4.57333,4.02,3.82667,0.369023,1,1,36148.1,58766.2,1691,0.95161998,1.5557775,154.38257,289.60522,9.05444,404.836,1.36755,-23.4843,24.4287,31.1474
1980-02-03 11:23:21,1,-4.15333,3.75333,3.89333,0.416653,1,1,41600.3,38087.9,1691,0.95162225,1.5557137,154.37842,289.60498,8.18523,401.323,5.38067,-16.5905,26.2063,25.0756
1980-02-03 11:24:02,1,-3.82143,3.42857,2.75714,0.332354,1,1,54719.4,68038.5,1691,0.95162451,1.5556507,154.37036,289.60474,10.9265,406.358,-0.791439,-17.2211,30.0558,33.5147
1980-02-03 11:24:42,1,-4.06667,3.88,3.2,0.336386,1,1,45153.4,48448.4,1691,0.95162451,1.5556507,154.36646,289.60474,9.17275,404.047,0.729133,-18.2133,27.3026,28.2812
1980-02-03 11:25:23,1,-3.78571,4.05714,3.30714,0.46142,1,1,42236.8,55054.0,1691,0.95162684,1.5555868,154.3584,289.60449,9.72037,407.501,-1.86478,-20.7113,26.406,30.1476
1980-02-03 11:26:03,1,-3.30667,4.2,4.92667,0.63133,1,1,41117.2,48210.3,1691,0.9516291,1.5555229,154.35449,289.60449,8.91131,402.338,5.32886,-15.0939,26.0537,28.2116
1980-02-03 11:26:44,1,-3.91333,4.30667,4.70667,0.439394,1,1,49025.3,72125.4,1691,0.9516291,1.5555229,154.34668,289.60449,9.36362,403.635,3.095,-17.8026,28.4491,34.5066
1980-02-03 11:27:24,1,-3.85333,4.09333,4.9,0.28829,1,1,41146.2,49889.3,1691,0.95163137,1.555459,154.33862,289.60425,8.80887,400.137,4.56874,-14.7031,26.0629,28.6987
1980-02-03 11:28:05,1,-4.05714,4.42143,4.75,0.425345,1,1,44974.2,69855.7,1691,0.95163363,1.5553951,154.33447,289.604,10.2544,401.211,5.90026,-19.7312,27.2483,33.9593
1980-02-03 11:28:45,1,-3.26667,4.18667,5.11333,0.548209,1,1,42756.5,50411.7,1691,0.95163363,1.5553951,154.32666,289.604,8.89366,401.126,5.39453,-15.16,26.568,28.8485
1980-02-03 11:29:26,1,-3.18,4.02,4.98,0.509379,1,1,61538.8,71388.1,1691,0.9516359,1.5553312,154.32251,289.60376,10.4609,406.318,3.52706,-16.3711,31.8737,34.3298
1980-02-03 11:30:06,1,-3.70625,4.03125,4.48125,0.631869,1,1,49098.2,51949.8,1691,0.95163822,1.5552683,154.3147,289.60376,9.58781,405.013,3.04147,-17.7028,28.4702,29.2853
1980-02-03 11:30:47,1,-3.82143,3.16429,3.13571,0.328183,1,1,63631.1,75650.7,1691,0.95163822,1.5552683,154.30688,289.60376,11.0347,401.358,3.31523,-19.3312,32.411,35.3398
1980-02-03 11:31:27,1,-3.11333,2.24,2.56,0.820135,1,1,67375.6,67559.0,1691,0.95164049,1.5552044,154.30273,289.60352,11.7291,404.616,3.3238,-18.2438,33.351,33.3964
1980-02-03 11:32:08,1,-2.26,1.94,0.993333,0.578581,1,1,67883.0,75486.6,1691,0.95164275,1.5551405,154.29468,289.60327,11.8925,405.011,3.38639,-19.7222,33.4764,35.3015
1980-02-03 11:32:48,1,-2.61875,1.66875,1.84375,0.601982,1,1,57274.0,59423.5,1691,0.95164275,1.5551405,154.29077,289.60327,11.3587,401.423,6.65393,-17.0586,30.7494,31.3211
1980-02-03 11:33:29,1,-2.63333,1.48,1.35333,0.380759,1,1,71540.1,74072.9,1691,0.95164502,1.5550766,154.28271,289.60303,12.6474,403.102,5.462,-15.4912,34.3663,34.9694
1980-02-03 11:34:09,1,-2.5,0.95625,1.6125,0.493513,1,1,65871.8,72694.7,1691,0.95164728,1.5550127,154.27856,289.60278,13.1089,399.077,5.12385,-19.0904,32.9767,34.6425
1980-02-03 11:34:50,1,-2.34286,1.75714,2.1,1.19608,1,1,83235.5,73038.3,1691,0.95164728,1.5550127,154.27075,289.60278,12.1332,400.253,5.7875,-19.1584,37.0691,34.7243
1980-02-03 11:35:30,1,-2.37333,2.80667,3.36667,0.465618,1,1,66293.2,65012.0,1691,0.95164961,1.5549488,154.26294,289.60278,11.2881,399.53,2.33186,-24.1563,33.0821,32.7608
1980-02-03 11:36:11,1,-2.42667,3.5,4.78667,1.33832,1,1,73872.9,85004.6,1691,0.95165187,1.5548859,154.25879,289.60254,12.4174,397.133,6.51291,-20.6979,34.9221,37.461
1980-02-03 11:36:51,1,-2.26,4.03333,6.15333,0.566078,1,1,60747.9,61515.0,1691,0.95165187,1.5548859,154.25098,289.60254,10.655,399.909,4.57184,-18.8046,31.6682,31.8675
1980-02-03 11:37:32,1,-2.76667,4.45333,6.08,0.321939,1,1,55949.4,72473.1,1691,0.95165414,1.554822,154.24683,289.60229,10.3827,401.167,6.06758,-21.0392,30.3917,34.5897
1980-02-03 11:38:12,1,-2.775,4.5875,6.05,0.304908,1,1,46639.1,53302.7,1691,0.9516564,1.5547581,154.23877,289.60205,8.82821,400.149,5.10014,-19.3192,27.7481,29.6642
1980-02-03 11:38:53,1,-2.78667,4.60667,6.0,0.213957,1,1,55159.2,74334.6,1691,0.9516564,1.5547581,154.23096,289.60205,10.1007,401.175,5.88233,-20.1755,30.1764,35.0311
1980-02-03 11:39:33,1,-2.64375,4.1875,5.05,0.528966,1,1,66076.5,57172.1,1691,0.95165867,1.5546942,154.22705,289.60205,9.41659,397.251,6.46887,-20.9417,33.0279,30.722
1980-02-03 11:41:29,1,-2.49231,2.86923,1.93846,0.606864,1,1,75311.1,77809.2,1691,0.95164412,1.6253959,154.12753,289.52206,11.297,401.36,2.57183,-19.5699,35.2604,35.8405
1980-02-03 11:42:15,1,-2.7,3.40833,1.26667,0.369215,1,1,92324.2,88788.0,1691,0.95166552,1.5545034,154.20288,289.60132,12.0965,402.111,5.51339,-22.3722,39.0405,38.2856
1980-02-03 11:42:50,1,-2.76923,3.50769,1.74615,0.395088,1,1,80302.1,76904.5,1691,0.95166552,1.5545034,154.19507,289.60132,11.3399,400.775,3.05207,-20.5502,36.4101,35.6315
1980-02-03 11:42:56,1,-2.76667,3.46667,1.89167,0.378869,1,1,88305.0,83225.5,1691,0.95166552,1.5545034,154.19507,289.60132,12.3353,403.555,1.06889,-23.9329,38.1813,37.0669
1980-02-03 11:43:36,1,-2.68571,3.59286,2.31429,0.336322,1,1,80028.0,68816.3,1691,0.95166779,1.5544395,154.18726,289.60132,11.0072,402.399,2.4976,-22.5453,36.3479,33.7057
1980-02-03 11:44:17,1,-2.38667,3.56667,1.50667,0.368782,1,1,92959.5,93117.2,1691,0.95167005,1.5543756,154.18311,289.60107,12.7185,398.621,1.13465,-20.1428,39.1746,39.2078
1980-02-03 11:44:57,1,-2.76875,3.5,2.61875,0.49867,1,1,79704.2,72429.8,1691,0.95167005,1.5543756,154.17529,289.60107,11.2004,401.431,1.20893,-21.6448,36.2742,34.5793
1980-02-03 11:45:38,1,-3.05,3.38571,2.1,0.460756,1,1,82307.8,85226.8,1691,0.95167238,1.5543118,154.17114,289.60083,11.8656,403.207,-0.8918,-22.6698,36.8619,37.5099
1980-02-03 11:46:59,1,-2.92857,3.25714,2.26429,0.420459,1,1,88535.2,83797.2,1691,0.95167464,1.5542479,154.15918,289.60059,12.6773,402.222,0.0631161,-21.601,38.231,37.194
1980-02-03 11:47:39,1,-3.18667,3.02667,2.52667,0.384361,1,1,84440.4,78432.7,1691,0.95167691,1.554184,154.15137,289.60059,11.8785,400.612,1.76728,-21.2346,37.3364,35.9838
1980-02-03 11:48:20,1,-3.14,3.10667,2.71333,0.4489,1,1,85114.5,88503.6,1691,0.95167917,1.554121,154.14331,289.60034,12.6066,401.536,1.99446,-22.3477,37.4852,38.2242
1980-02-03 11:49:00,1,-3.3,3.16667,2.9,0.410961,1,1,84682.7,75517.8,1691,0.95168144,1.5540571,154.13916,289.6001,11.4265,401.551,2.01352,-19.5527,37.39,35.3088
1980-02-03 11:49:41,1,-3.38667,3.24,2.94667,0.413978,1,1,88490.4,86967.0,1691,0.95168144,1.5540571,154.13135,289.6001,12.2534,402.852,-0.163158,-21.9381,38.2213,37.8909
1980-02-03 11:50:21,1,-3.26667,3.19333,2.88667,0.428952,1,1,79269.9,79387.0,1691,0.95168376,1.5539932,154.1272,289.59985,11.1689,399.912,1.55058,-20.0666,36.1753,36.202
1980-02-03 11:51:02,1,-3.60714,3.45,3.07143,0.355855,1,1,74969.1,86440.1,1691,0.95168602,1.5539293,154.11914,289.59961,11.9059,404.037,-0.490113,-19.5834,35.1803,37.776
1980-02-03 11:51:42,1,-3.69333,3.6,3.13333,0.381459,1,1,69848.5,64863.6,1691,0.95168602,1.5539293,154.11133,289.59961,10.2921,401.798,1.10659,-18.9273,33.9576,32.7234
1980-02-03 11:52:23,1,-3.67857,3.43571,2.92143,0.374098,1,1,76754.9,84231.0,1691,0.95168829,1.5538654,154.10742,289.59961,12.1183,403.135,-0.994663,-21.0382,35.5968,37.2901
1980-02-03 11:53:03,1,-3.22143,3.72857,3.07143,0.500051,1,1,68637.6,62704.7,1691,0.95169055,1.5538015,154.09937,289.59937,10.2106,401.686,-0.268599,-18.9439,33.6619,32.1742
1980-02-03 11:53:44,1,-3.78667,3.28667,2.74667,0.382274,1,1,79175.6,87734.1,1691,0.95169055,1.5538015,154.09546,289.59937,12.1102,402.614,-0.655438,-19.2132,36.1538,38.0577
1980-02-03 11:54:24,1,-3.21333,3.78667,3.0,0.477121,1,1,70711.9,68487.5,1691,0.95169282,1.5537386,154.0874,289.59912,11.2659,402.928,1.52107,-17.5858,34.1668,33.6251
1980-02-03 11:55:05,1,-3.78667,3.24667,3.06667,0.308545,1,1,81442.6,87050.8,1691,0.95169514,1.5536747,154.08325,289.59888,11.9428,404.542,1.50308,-18.7165,36.6677,37.9092
1980-02-03 11:55:45,1,-3.95333,3.17333,2.78,0.281741,1,1,67891.3,68819.1,1691,0.95169514,1.5536747,154.07544,289.59888,10.8293,403.688,0.0491045,-16.6589,33.4784,33.7064
1980-02-03 11:56:26,1,-3.48571,3.19286,2.32857,0.410139,1,1,82252.7,81467.4,1691,0.95169741,1.5536108,154.06763,289.59888,11.641,403.701,-0.561243,-17.3231,36.8496,36.6733
1980-02-03 11:57:06,1,-3.26,3.08667,2.15333,0.580268,1,1,64358.9,63171.9,1691,0.95169967,1.5535469,154.06348,289.59863,10.9886,402.077,1.29532,-16.1474,32.5958,32.2938
1980-02-03 11:57:47,1,-3.06667,3.36667,2.69333,0.942196,1,1,79956.9,80134.0,1691,0.95169967,1.5535469,154.05566,289.59863,11.8607,402.042,1.87432,-18.6195,36.3317,36.3719
1980-02-03 11:59:08,1,-2.975,3.625,3.225,0.332603,1,1,86230.9,88539.3,1691,0.9517042,1.5534191,154.04346,289.59814,12.2495,402.213,0.336448,-18.6991,37.7302,38.2319
1980-02-03 11:59:48,1,-2.59375,3.4375,2.73125,0.4214,1,1,80827.9,77144.3,1691,0.9517042,1.5534191,154.03955,289.59814,11.6908,401.133,1.54744,-15.1181,36.5291,35.687
1980-02-03 12:00:29,1,-2.62,3.63333,2.97333,0.325235,1,1,94393.7,90121.8,1691,0.95170653,1.5533562,154.03174,289.59814,12.6812,402.258,1.53603,-19.4928,39.4757,38.5721
1980-02-03 12:01:09,1,-2.76667,3.84667,3.38667,0.329444,1,1,74020.8,70102.8,1691,0.95170879,1.5532923,154.02368,289.5979,11.0363,402.584,0.842555,-17.504,34.9571,34.0193
1980-02-03 12:01:50,1,-2.85714,3.43571,3.94286,0.48849,1,1,92927.2,84853.1,1691,0.95170879,1.5532923,154.01978,289.5979,12.0198,401.86,0.677111,-17.8744,39.1678,37.4276
1980-02-03 12:02:30,1,-3.84,3.87333,2.6,0.567176,1,1,58355.2,42741.9,1691,0.95171106,1.5532284,154.01172,289.59766,8.79314,401.233,2.8805,-19.9545,31.0383,26.5635
1980-02-03 12:03:11,1,-3.89286,3.96429,1.85714,0.437176,1,1,49035.7,63553.8,1691,0.95171332,1.5531645,154.00757,289.59741,9.63575,405.092,-0.463753,-20.5367,28.4521,32.3913
1980-02-03 12:03:51,1,-3.57333,4.39333,1.93333,0.47131,1,1,48586.0,40714.5,1691,0.95171332,1.5531645,153.99976,289.59741,8.85198,400.434,3.91986,-17.5212,28.3213,25.9258
1980-02-03 12:04:32,1,-3.59333,4.47333,2.28,0.834373,1,1,63746.5,66835.7,1691,0.95171559,1.5531006,153.9917,289.59717,10.2989,403.822,1.74809,-20.0717,32.4404,33.2171
1980-02-03 12:05:12,1,-3.91333,4.26667,3.07333,0.444222,1,1,51557.6,47044.8,1691,0.95171785,1.5530367,153.98779,289.59717,9.41623,400.734,1.309,-16.611,29.1746,27.8685
1980-02-03 12:05:53,1,-3.43571,3.82143,3.40714,0.453951,1,1,77141.9,77129.6,1691,0.95171785,1.5530367,153.97998,289.59717,11.5325,398.974,-0.314525,-17.7624,35.6864,35.6836
1980-02-03 12:06:33,1,-3.67857,3.75,3.66429,0.298893,1,1,60326.8,49596.4,1691,0.95172012,1.5529737,153.97583,289.59692,10.1299,398.761,1.08412,-17.6305,31.5583,28.6143
1980-02-03 12:07:14,1,-3.72,3.82,3.61333,0.356402,1,1,77628.3,77982.8,1691,0.95172238,1.5529099,153.96777,289.59668,12.1885,398.901,-2.36287,-17.0679,35.7988,35.8804
1980-02-03 12:07:54,1,-4.02667,3.79333,4.36,0.51476,1,1,51655.1,48977.2,1691,0.95172238,1.5529099,153.96387,289.59668,11.0427,399.323,1.50564,-15.6776,29.2021,28.4351
1980-02-03 12:08:35,1,-3.98667,4.33333,3.52667,0.63456,1,1,59644.2,55295.0,1691,0.95172465,1.552846,153.95581,289.59644,11.3226,395.078,1.31704,-20.8131,31.3792,30.2135
1980-02-03 12:09:15,1,-3.98667,4.22667,4.34667,0.562376,1,1,48743.1,37423.0,1691,0.95172697,1.5527821,153.948,289.59644,10.4224,397.635,3.88461,-18.7979,28.3671,24.8558
1980-02-03 12:09:56,1,-3.86429,4.27857,4.14286,0.452769,1,1,61851.3,53358.3,1691,0.95172697,1.5527821,153.94409,289.59644,11.6223,396.04,0.513703,-21.1805,31.9545,29.6797
1980-02-03 12:10:36,1,-3.41875,4.2125,4.58125,0.552622,1,1,50866.0,39496.0,1691,0.95172924,1.5527182,153.93604,289.59619,10.8125,396.642,3.76475,-21.9922,28.9782,25.5349
1980-02-03 12:11:17,1,-3.35333,4.18667,4.53333,0.578965,1,1,58805.2,52302.0,1691,0.9517315,1.5526552,153.93188,289.59595,11.6455,395.465,2.09307,-23.585,31.1577,29.3844
1980-02-03 12:11:57,1,-3.09333,3.83333,5.16667,0.828493,1,1,59265.1,51511.1,1691,0.9517315,1.5526552,153.92407,289.59595,12.095,394.697,3.89094,-22.852,31.2793,29.1614
1980-02-03 12:12:38,1,-3.16429,3.62857,5.26429,0.580201,1,1,59447.1,52021.3,1691,0.95173377,1.5525913,153.91602,289.5957,11.8161,391.705,2.25728,-21.3767,31.3273,29.3054
1980-02-03 12:13:18,1,-3.17143,3.75,5.05714,0.620936,1,1,58438.2,48508.3,1691,0.95173603,1.5525274,153.91211,289.5957,11.8018,393.571,5.08584,-22.1801,31.0603,28.2986
1980-02-03 12:13:59,1,-2.83333,4.39333,5.01333,0.417931,1,1,58839.6,47848.8,1691,0.95173603,1.5525274,153.9043,289.5957,11.5529,395.92,1.70773,-25.3239,31.1668,28.1056
1980-02-03 12:14:39,1,-2.99286,4.0,5.25714,0.370672,1,1,55937.3,43100.2,1691,0.9517383,1.5524635,153.90015,289.59546,11.649,395.595,4.76526,-23.7206,30.3885,26.6746
1980-02-03 12:15:20,1,-2.72143,4.05714,5.54286,0.393895,1,1,59901.7,50312.9,1691,0.95174056,1.5523996,153.89209,289.59521,11.7614,395.744,0.997524,-25.8303,31.4469,28.8202
1980-02-03 12:16:41,1,-2.82,3.88667,5.91333,0.444122,1,1,56014.9,50747.8,1691,0.95174283,1.5523357,153.88013,289.59497,11.6611,397.163,1.91386,-25.6337,30.4095,28.9445
1980-02-03 12:17:21,1,-3.32857,3.78571,5.99286,0.428869,1,1,52600.9,42485.2,1691,0.95174509,1.5522728,153.87231,289.59497,11.1077,394.368,5.57382,-24.8962,29.4683,26.4836
1980-02-03 12:18:02,1,-3.41429,3.53571,6.08571,0.436416,1,1,50017.4,47191.8,1691,0.95174742,1.5522089,153.86816,289.59473,11.0691,392.973,3.03242,-24.8045,28.7355,27.912
1980-02-03 12:18:42,1,-3.31429,3.72857,6.19286,0.522015,1,1,53471.5,39895.7,1691,0.95174742,1.5522089,153.86035,289.59473,10.9591,394.582,5.97126,-24.7546,29.7111,25.6638
1980-02-03 12:19:23,1,-3.22857,3.04286,6.5,0.344638,1,1,52616.5,50879.8,1691,0.95174968,1.552145,153.8562,289.59448,10.9662,391.358,4.59266,-22.911,29.4726,28.9821
1980-02-03 12:20:03,1,-3.4,3.02857,6.35714,0.295545,1,1,58288.2,48741.5,1691,0.95175195,1.5520811,153.84814,289.59424,10.9408,391.356,5.97438,-22.6048,31.0205,28.3666
1980-02-03 12:20:44,1,-3.31429,3.13571,6.52857,0.356356,1,1,50254.8,49964.1,1691,0.95175195,1.5520811,153.84424,289.59424,11.1001,391.82,4.00812,-24.1099,28.8036,28.7202
1980-02-03 12:21:24,1,-3.41429,2.92857,6.41429,0.272928,1,1,48813.6,47092.3,1691,0.95175421,1.5520172,153.83618,289.59399,10.7854,391.29,6.76162,-23.6249,28.3876,27.8826
1980-02-03 12:22:05,1,-3.66429,3.19286,6.61429,0.419061,1,1,42723.6,44708.9,1691,0.95175648,1.5519543,153.82837,289.59399,10.3465,394.433,0.571524,-24.2924,26.5578,27.1678
1980-02-03 12:22:45,1,-3.92,3.16667,6.48667,0.304923,1,1,40325.6,42312.2,1691,0.95175648,1.5519543,153.82446,289.59399,10.4265,394.306,3.20819,-21.4946,25.8017,26.4296
1980-02-03 12:23:25,1,-3.85714,3.14286,6.41429,0.411071,1,1,44675.9,45528.9,1691,0.95175874,1.5518904,153.81641,289.59375,10.9295,392.819,0.312791,-20.2005,27.1578,27.4158
1980-02-03 12:24:46,1,-2.92143,2.8,6.83571,1.11149,1,1,48634.6,53520.9,1691,0.95176101,1.5518265,153.80444,289.59351,10.2833,403.582,-22.3324,-22.6214,28.3355,29.7248
1980-02-03 12:25:26,1,-2.94286,1.67857,7.45714,1.1932,1,1,53119.7,41980.0,1691,0.95176327,1.5517626,153.80029,289.59326,11.6161,385.716,10.2251,-24.8677,29.6132,26.3257
1980-02-03 12:26:48,-1,nan,nan,nan,nan,1,3,nan,nan,1691,0.9517656,1.5516987,153.78467,289.59326,nan,387.368,8.64212,-19.6143,nan,nan
1980-02-03 12:28:50,-1,nan,nan,nan,nan,1,4,nan,nan,1691,0.95177013,1.5515718,153.76855,289.59277,nan,nan,nan,nan,nan,nan
1980-02-03 12:29:30,2,-3.6975,1.495,4.73,0.319365,1,1,70664.8,49051.1,1691,0.95177239,1.5515079,153.7605,289.59253,10.6063,391.549,6.4756,-19.7804,34.1554,28.4565
1980-02-03 12:30:11,2,-3.4075,1.7475,4.8175,0.103953,1,1,58573.3,61491.3,1691,0.95177466,1.5514441,153.75269,289.59253,9.93504,390.157,3.15619,-19.8954,31.0962,31.8614
1980-02-03 12:30:51,2,-3.53,1.902,4.734,0.10583,1,1,61827.7,50257.9,1691,0.95177466,1.5514441,153.74878,289.59253,10.4133,392.714,3.62119,-19.9451,31.9484,28.8045
1980-02-03 12:31:32,2,-3.52,1.898,4.638,0.076629,1,1,62158.2,59549.2,1691,0.95177692,1.5513802,153.74072,289.59229,11.0818,394.656,2.17813,-22.5807,32.0337,31.3542
1980-02-03 12:32:12,1,-3.49286,2.33571,7.26429,0.328804,1,1,67239.3,41730.2,1691,0.95177919,1.5513163,153.73657,289.59204,9.8543,393.198,6.30587,-20.7615,33.3173,26.2472
1980-02-03 12:32:53,1,-3.45714,2.76429,7.10714,0.377559,1,1,61664.4,57099.0,1691,0.95177919,1.5513163,153.72876,289.59204,11.0845,391.815,1.87078,-19.9205,31.9062,30.7024
1980-02-03 12:33:33,1,-3.85714,2.90714,6.82143,0.449376,1,1,63323.5,50372.3,1691,0.95178145,1.5512533,153.72461,289.5918,10.3985,393.198,4.4044,-19.0848,32.3326,28.8372
1980-02-03 12:34:14,1,-3.82,2.76667,7.46667,0.407486,1,1,107699.0,66937.2,1691,0.95178372,1.5511894,153.71655,289.59155,7.77264,383.422,9.84249,-14.9371,42.1661,33.2423
1980-02-03 12:34:54,1,-4.13571,2.60714,7.65714,0.397826,1,1,97762.0,66404.0,1691,0.95178378,1.5511894,153.70874,289.59155,7.54935,376.138,7.85626,-16.1767,40.1738,33.1097
1980-02-03 12:35:35,1,-4.28462,2.84615,7.73846,0.486747,1,1,104790.0,65317.9,1691,0.95178604,1.5511255,153.70483,289.59155,8.22853,382.588,10.3534,-13.4776,41.5927,32.8378
1980-02-03 12:36:15,1,-4.30667,2.96,7.56,0.370705,1,1,104770.0,58707.9,1691,0.95178831,1.5510616,153.69678,289.59131,7.6185,381.067,10.9449,-17.6811,41.5888,31.1319
1980-02-03 12:36:56,1,-4.13571,2.99286,7.82857,0.384522,1,1,101017.0,64611.6,1691,0.95178831,1.5510616,153.69287,289.59131,8.30539,383.334,8.01353,-19.7783,40.8372,32.6598
1980-02-03 12:37:36,1,-4.39286,2.92857,8.14286,0.29181,1,1,106048.0,52238.3,1691,0.95179057,1.5509977,153.68481,289.59106,8.29373,384.085,10.5887,-19.9049,41.8417,29.3665
1980-02-03 12:38:17,1,-4.40667,3.02,8.11333,0.522217,1,1,112443.0,51503.9,1691,0.95179284,1.5509348,153.67676,289.59082,7.98522,382.357,7.40245,-22.3224,43.0847,29.1594